Flag for Germany Weather past 2 weeks in Seevetal, Lower Saxony, Germany

Now
68 °F

Sunny.


Feels Like: 68 °F
Forecast: 63 / 79 °F
Wind: 8 mph from Northeast

Location: Hamburg-Finkenwerder

Current Time: Jul 25, 2014 at 9:33:24 AM

Latest Report: Jul 25, 2014 at 8:50 AM


Visibility: 10 mi

Pressure: 30.01 "Hg

Humidity: 88%

Dew point: 64 °F

Location of SeevetalLocation

Historic Weather in Seevetal — Graph

°F

Seevetal temperature yesterday

Maximum temperature yesterday: 79 °F (at 12:50 PM)
Minimum temperature yesterday: 63 °F (at 5:50 AM)
Average temperature yesterday: 72 °F

Past Weeks' High & Low Weather Summary

 TemperatureHumidityPressure
High86 °F (Jul 18, 3:20 PM)100% (Jul 14, 5:20 AM)30.18 "Hg (Jul 14, 5:20 AM)
Low54 °F (Jul 17, 5:20 AM)37% (Jul 23, 3:50 PM)29.68 "Hg (Jul 14, 5:20 AM)
Average73 °F64%30.01 "Hg
* Reported Jul 10 8:20 AM — Jul 25 8:20 AM, Seevetal, Weather by CustomWeather, © 2014

Note: Actual official high and low records may vary slightly from our data, if they occured in-between our weather recording intervals... More about our weather records

Advertising

Seevetal weather history for previous 24 hours

 ConditionsComfort  
Time TempWeatherWind HumidityBarometerVisibility
8:20 AM
Jul 25
66 °FPartly sunny.7 mph88%30.01 "HgN/A
7:50 AM66 °FPartly sunny.7 mph88%30.01 "HgN/A
7:20 AM66 °FBroken clouds.10 mph88%30.01 "HgN/A
6:50 AM64 °FLight rain. Partly sunny.10 mph94%30.01 "Hg6 mi
6:20 AM64 °FLight rain. Partly cloudy.8 mph94%30.01 "Hg6 mi
5:50 AM64 °FLight rain. Partly cloudy.3 mph88%30.01 "Hg6 mi
7:50 PM
Jul 24
73 °FSunny.10 mph61%30.01 "Hg10 mi
7:20 PM73 °FSunny.10 mph65%30.04 "Hg10 mi
6:50 PM73 °FPassing clouds.5 mph74%30.04 "HgN/A
6:20 PM72 °FSunny.3 mph78%30.04 "Hg10 mi
5:50 PM70 °FScattered showers. Broken clouds.No wind83%30.04 "HgN/A
5:20 PM68 °FScattered showers. Broken clouds.2 mph88%30.04 "HgN/A
4:50 PM70 °FLight rain. Broken clouds.2 mph78%30.04 "HgN/A
4:20 PM70 °FLight rain. Broken clouds.5 mph73%30.07 "HgN/A
3:50 PM72 °FScattered showers. Broken clouds.2 mph69%30.07 "HgN/A
3:20 PM72 °FThundershowers. Scattered clouds.2 mph69%30.07 "Hg6 mi
2:50 PM68 °FLight rain. Scattered clouds.7 mph78%30.07 "Hg6 mi
2:20 PM75 °FThundershowers. Scattered clouds.8 mph65%30.07 "HgN/A
1:50 PM70 °FScattered showers. Scattered clouds.14 mph69%30.07 "HgN/A
1:20 PM79 °FThundershowers. Scattered clouds.9 mph48%30.07 "HgN/A
12:50 PM79 °FScattered clouds.10 mph48%30.07 "HgN/A
12:20 PM77 °FPassing clouds.14 mph47%30.07 "HgN/A
11:50 AM77 °FPassing clouds.14 mph51%30.07 "HgN/A
11:20 AM75 °FPassing clouds.10 mph54%30.07 "HgN/A
10:50 AM77 °FPassing clouds.9 mph51%30.07 "HgN/A
10:20 AM75 °FPassing clouds.8 mph54%30.07 "HgN/A
9:50 AM73 °FPassing clouds.7 mph61%30.07 "HgN/A
9:20 AM72 °FPassing clouds.7 mph65%30.07 "HgN/A
Weather by CustomWeather, © 2014

See weather overviewHow to use our weather pages